SCP
0 0 0 0 0 0 0 0 0 0 0 0 0 0 0 0 0 0 0 0 0 0 0 0 0 0 0 0 0 0 0 0 0 0 1 1 1 1
0 0 0 0 0 0 0 0 0 0 0 0 0 0 0 0 0 0 0 0 0 0 0 0 0 0 0 0 0 0 0 0 0 0 0 1 1 1
0 0 0 0 0 0 0 0 0 0 0 0 0 0 0 0 0 0 0 0 0 0 0 0 0 0 0 0 0 0 0 0 0 0 0 0 1 1
0 0 0 0 0 0 0 0 0 0 0 0 0 0 0 0 0 0 0 0 0 0 0 0 0 0 0 0 0 0 0 0 0 0 0 0 0 0
0 0 0 0 0 0 0 0 0 0 0 0 0 0 0 0 0 0 0 0 0 0 0 0 0 0 0 0 0 0 0 0 0 0 0 0 0 0
0 0 0 0 0 0 0 0 0 0 0 0 0 0 0 0 0 0 0 0 0 0 0 0 0 0 0 0 0 0 0 0 0 0 0 0 0 0
0 0 0 0 0 0 0 0 0 0 0 0 0 0 0 0 0 0 0 0 0 0 0 0 0 0 0 0 0 0 0 0 0 0 0 0 0 0
0 0 0 0 0 0 0 0 0 0 0 0 0 0 0 0 0 0 0 0 0 0 0 0 0 0 0 0 0 0 0 0 0 0 0 0 0 0
0 0 0 0 0 0 0 0 0 0 0 0 0 0 0 0 0 0 0 0 0 0 0 0 0 0 0 0 0 0 0 0 0 0 0 0 0 0
0 0 0 0 0 0 0 0 0 0 0 0 0 0 0 0 0 0 0 0 0 0 0 0 0 0 0 0 0 0 0 0 0 0 0 0 0 0
0 0 0 0 0 0 0 0 0 0 0 0 0 0 0 0 0 0 0 0 0 0 0 0 0 0 0 0 0 0 0 0 0 0 0 0 0 0
0 0 0 0 0 0 0 0 0 0 0 0 0 0 0 0 0 0 0 0 0 0 0 0 0 0 0 0 0 0 0 0 0 0 0 0 0 0
0 0 0 0 0 0 0 0 0 0 0 0 0 0 0 0 0 0 0 0 0 0 0 0 0 0 0 0 0 0 0 0 0 0 0 0 0 0
0 0 0 0 0 0 0 0 0 0 0 0 0 0 0 0 0 0 0 0 0 0 0 0 0 0 0 0 0 0 0 0 0 0 0 0 0 0
0 0 0 0 0 0 0 0 0 0 0 0 0 0 0 0 0 0 0 0 0 0 0 0 0 0 0 0 0 0 0 0 0 0 0 0 0 0
0 0 0 0 0 0 0 0 0 0 0 0 0 0 0 0 0 0 0 0 0 0 0 0 0 0 0 0 0 0 0 0 0 0 0 0 0 0
0 0 0 0 0 0 0 0 0 0 0 0 0 0 0 0 0 0 0 0 0 0 0 0 0 0 0 0 0 0 0 0 0 0 0 0 0 0
0 0 0 0 0 0 0 0 0 0 0 0 0 0 0 0 0 0 0 0 0 0 0 0 0 0 0 0 0 0 0 0 0 0 0 0 0 0
0 0 0 0 0 0 0 0 0 0 0 0 0 0 0 0 0 0 0 0 0 0 0 0 0 0 0 0 0 0 0 0 0 0 0 0 0 0
0 0 0 0 0 0 0 0 0 0 0 0 0 0 0 0 0 0 0 0 0 0 0 0 0 0 0 0 0 0 0 0 0 0 0 0 0 0
0 0 0 0 0 0 0 0 0 0 0 0 0 0 0 0 0 0 0 0 0 0 0 0 0 0 0 0 0 0 0 0 0 0 0 0 0 0
0 0 0 0 0 0 0 0 0 0 0 0 0 0 0 0 0 0 0 0 0 0 0 0 0 0 0 0 0 0 0 0 0 0 0 0 0 0
0 0 0 0 0 0 0 0 0 0 0 0 0 0 0 0 0 0 0 0 0 0 0 0 0 0 0 0 0 0 0 0 0 0 0 0 0 0
Wind_Speed
6 6 5 4 4 4 4 5 6 5 6 6 3 3 3 1 1 2 3 6 8 9 10 11 13 14 15 16 16 17 17 17 18 18 15 12 8 3
5 6 7 5 5 5 5 4 4 6 4 3 3 3 4 3 3 3 3 7 7 7 8 10 11 12 13 14 14 14 14 14 15 18 19 20 18 13
4 6 7 6 6 6 5 5 5 4 4 3 2 2 4 4 3 2 3 3 3 6 7 8 9 11 12 12 13 12 12 12 12 14 16 18 21 21
7 7 7 6 7 6 6 7 6 5 5 5 3 3 3 4 4 3 2 2 2 4 6 7 8 9 11 11 11 12 12 11 10 11 14 16 17 19
8 9 8 8 9 7 8 7 6 5 4 5 5 3 2 3 3 2 2 2 1 3 5 7 7 8 9 10 11 11 11 11 10 11 12 14 15 17
8 8 8 10 11 10 9 9 7 6 5 6 5 4 3 3 3 3 2 1 1 2 3 5 7 9 8 8 10 10 10 10 10 11 11 11 13 14
8 8 9 12 14 11 9 9 9 8 7 6 5 4 4 5 6 4 4 2 0 0 0 2 2 3 4 5 7 9 10 11 11 12 12 11 11 11
8 7 8 11 14 17 16 15 15 13 11 8 6 7 8 7 6 5 5 4 3 2 2 1 1 1 1 1 2 7 8 10 11 11 12 11 11 11
7 5 5 7 10 8 13 16 17 19 18 12 10 9 10 11 11 9 7 5 4 4 4 2 0 1 1 2 2 4 6 7 9 9 10 10 9 8
6 6 6 5 6 8 7 8 9 11 14 12 11 9 7 9 10 9 8 6 4 2 3 3 3 2 1 1 4 5 5 5 6 7 8 8 7 6
4 5 6 5 7 9 7 8 8 7 10 10 7 8 11 16 14 9 9 6 3 4 4 4 3 2 1 2 4 7 6 6 6 6 7 6 6 5
1 2 5 6 7 9 6 6 7 6 5 7 7 9 10 15 21 14 11 8 4 5 6 5 4 4 2 2 2 3 4 6 8 7 7 7 6 4
2 2 2 6 7 7 6 3 3 2 4 5 6 6 6 7 11 9 9 8 7 4 8 7 5 4 3 2 1 3 4 3 4 5 7 9 10 7
3 2 2 3 4 4 4 3 3 4 3 4 5 6 6 7 7 8 7 5 4 4 10 9 5 6 5 3 2 1 3 4 4 4 4 6 9 12
2 3 3 2 3 2 2 2 4 3 3 3 4 5 4 4 5 5 6 5 4 4 9 6 6 5 5 4 3 3 2 4 6 6 6 6 6 6
2 3 5 5 3 3 2 2 2 3 3 3 2 2 3 4 5 5 5 5 4 3 4 4 6 7 5 4 4 4 4 3 4 7 7 6 6 7
5 3 2 2 1 1 1 1 1 2 2 2 2 3 3 4 4 5 5 5 6 6 5 3 3 3 4 5 4 5 4 4 3 4 5 5 7 9
5 3 2 2 2 2 2 2 2 2 2 3 3 3 4 6 6 5 5 6 7 6 7 6 5 3 2 2 7 6 5 4 3 5 4 4 5 6
3 3 3 3 3 3 2 2 2 2 2 3 3 3 4 5 6 7 7 6 6 5 5 6 6 6 6 5 5 10 7 5 4 4 5 6 6 4
1 2 2 2 2 3 3 2 2 2 2 3 3 3 3 4 5 6 8 7 6 5 5 5 7 8 9 6 4 5 9 7 6 5 4 3 5 5
1 1 1 2 2 2 3 3 3 3 3 3 3 3 3 3 4 5 6 8 6 5 6 7 7 6 2 3 2 2 3 8 8 5 5 3 2 1
1 2 2 2 3 3 3 3 3 3 3 3 3 3 3 3 4 5 5 6 5 5 4 3 4 5 4 6 5 4 3 2 5 8 8 7 5 4
1 2 2 2 3 3 3 3 4 3 4 4 3 3 4 3 3 4 4 4 4 4 4 4 4 3 4 4 4 3 3 3 2 2 5 9 12 10
Wind_Direction
199 199 201 197 188 182 167 163 159 181 218 204 187 173 159 146 92 46 27 60 54 43 39 41 42 42 44 47 49 54 57 58 58 55 53 49 43 51
194 200 208 198 193 191 191 192 179 179 196 162 167 162 166 155 128 61 38 52 52 50 43 45 47 48 48 49 51 52 53 56 60 61 60 59 58 67
210 205 213 193 191 194 192 190 185 161 155 141 121 134 147 151 117 80 59 37 14 53 51 48 52 54 54 55 56 55 54 55 62 69 71 70 69 72
230 217 220 200 200 194 194 197 191 172 149 157 148 143 155 153 134 122 88 66 12 56 54 47 53 60 62 61 62 60 58 57 59 70 77 81 83 84
228 221 217 198 205 200 197 197 189 178 145 144 149 136 132 141 128 113 91 40 8 60 44 30 42 61 70 71 70 68 67 64 60 66 76 83 86 89
227 220 213 204 206 200 198 193 178 168 150 143 146 147 140 134 138 149 148 112 53 42 25 24 31 46 53 79 84 83 82 80 76 73 74 80 86 90
227 216 214 212 209 200 195 189 178 175 165 158 155 154 162 165 187 165 150 133 211 204 40 6 18 30 27 45 82 97 96 94 90 86 80 79 85 92
229 218 213 216 217 211 208 197 188 183 183 176 170 180 190 184 155 157 140 146 208 207 169 212 34 74 17 22 93 113 109 105 99 95 90 85 84 89
226 215 212 210 208 204 212 209 205 203 195 184 186 191 184 184 169 166 168 160 182 168 152 188 217 209 263 326 321 150 134 127 118 112 108 101 94 94
223 213 210 201 193 196 195 200 203 207 204 199 202 200 185 173 175 172 151 119 91 142 160 175 195 213 245 270 287 223 178 166 152 139 129 119 110 104
229 213 201 191 193 189 189 202 207 214 212 203 189 172 166 166 158 139 145 148 169 192 192 168 175 185 220 235 248 249 213 189 185 177 164 149 134 110
226 203 190 173 166 171 179 196 214 212 188 189 173 167 166 173 173 173 168 167 156 186 188 169 158 160 202 248 229 235 238 212 203 200 193 179 160 132
212 202 195 172 159 164 164 179 214 183 175 176 167 162 165 176 184 185 180 172 169 178 170 159 154 170 167 187 249 223 209 207 207 218 216 203 182 167
211 204 198 183 163 156 160 180 193 154 154 168 179 186 189 190 189 185 181 175 158 160 168 163 153 166 155 161 219 225 207 207 202 213 216 220 208 199
202 187 172 166 147 134 140 147 150 148 161 181 198 203 191 176 159 156 160 152 123 126 159 171 152 150 154 165 178 184 201 215 208 212 214 213 211 203
113 107 98 102 102 110 104 113 134 160 173 191 193 179 153 159 164 157 158 157 151 145 164 170 160 153 157 162 163 186 197 206 202 212 217 223 223 217
122 90 82 96 125 149 151 162 172 173 186 180 178 172 173 174 170 162 154 157 177 179 169 151 128 132 150 155 177 206 203 216 207 180 194 228 235 226
126 136 155 171 194 205 210 215 217 216 210 201 202 199 197 195 186 174 171 179 190 184 173 160 144 125 114 249 210 204 206 217 193 175 185 212 247 230
125 150 173 190 203 212 218 224 233 234 217 215 219 217 212 206 194 190 187 185 188 179 167 161 165 167 186 229 228 204 201 189 165 182 205 215 240 250
130 161 189 200 205 212 218 228 243 247 232 228 221 214 207 205 202 196 192 186 177 164 157 167 189 194 204 212 203 199 203 190 179 192 197 214 253 272
192 205 216 216 215 216 219 224 230 232 229 223 221 214 203 193 196 195 187 176 164 161 176 198 212 187 119 106 143 217 222 207 197 185 173 176 216 257
239 238 239 231 222 216 213 211 217 224 224 221 218 211 203 197 194 188 181 176 175 166 173 163 137 148 168 189 205 208 216 218 217 219 209 191 177 202
274 254 251 248 237 226 218 218 220 225 220 215 212 207 200 201 197 187 181 166 147 151 152 153 152 163 185 195 204 207 208 201 198 205 236 238 239 247